Estación de San Julian

Ultimos registro cada 15 minutos 43
Estación Fecha / Hora Temperatura Humedad Lluvia Velocidad Dirección Radiación Presion
43 San Julian 10-05-2026 10:30 16 62,5 0 0 246 406,9 982,9
42 San Julian 10-05-2026 10:15 15 65,2 0 0 263 378,1 982,9
41 San Julian 10-05-2026 10:00 14,2 68,1 0 0 251 346,9 982,8
40 San Julian 10-05-2026 09:45 13,4 68,4 0 0 14 314,4 982,7
39 San Julian 10-05-2026 09:30 12,4 68,9 0 0 14 283,1 982,5
38 San Julian 10-05-2026 09:15 12,8 69,3 0 0 20 248,1 982,5
37 San Julian 10-05-2026 09:00 11,6 71,1 0 0 21 26,9 982,2
36 San Julian 10-05-2026 08:45 10,7 69,6 0 0 38 179,4 982
35 San Julian 10-05-2026 08:30 12 63,8 0 0 38 145,6 981,8
34 San Julian 10-05-2026 08:15 12,2 64,6 0 0 46 110,6 981,7
33 San Julian 10-05-2026 08:00 9,9 73,3 0 0 66 73,1 981,8
32 San Julian 10-05-2026 07:45 8,4 79 0 0 66 11,9 981,6
31 San Julian 10-05-2026 07:30 7,7 84,7 0 0 63 4,4 981,6
30 San Julian 10-05-2026 07:15 7,5 84,2 0 0 51 0,6 981,7
29 San Julian 10-05-2026 07:00 8,2 81,7 0 0 65 0,6 981,8
28 San Julian 10-05-2026 06:45 7,1 84,1 0 0 60 0,6 981,8
27 San Julian 10-05-2026 06:30 8,9 79,8 0 0 52 0,6 981,6
26 San Julian 10-05-2026 06:15 8,9 80,3 0 0 35 0,6 981,6
25 San Julian 10-05-2026 06:00 9,6 79,1 0 0 39 0,6 981,6
24 San Julian 10-05-2026 05:45 9,3 81,9 0 0 42 0,6 981,6
23 San Julian 10-05-2026 05:30 9 83,1 0 0 55 0,6 981,6
22 San Julian 10-05-2026 05:15 9,6 83,9 0 0 53 0,6 981,7
21 San Julian 10-05-2026 05:00 9,4 86,1 0 0 69 0,6 981,8
20 San Julian 10-05-2026 04:45 8,2 89 0 0 62 0,6 981,9
19 San Julian 10-05-2026 04:30 7,9 90,2 0 0 55 0,6 982
18 San Julian 10-05-2026 04:15 8,4 87,6 0 0 45 0,6 982,1
17 San Julian 10-05-2026 04:00 8,2 91,1 0 0 48 0,6 982,3
16 San Julian 10-05-2026 03:45 8 91,3 0 0 46 0,6 982,4
15 San Julian 10-05-2026 03:30 8 92,6 0 0 44 0,6 982,5
14 San Julian 10-05-2026 03:15 7,6 92,4 0 0 45 0,6 982,7
13 San Julian 10-05-2026 03:00 5,4 91,3 0 0 46 0,6 982,8
12 San Julian 10-05-2026 02:45 6 91,2 0 0 46 0,6 982,8
11 San Julian 10-05-2026 02:30 7 90,2 0 0 46 0,6 983,1
10 San Julian 10-05-2026 02:15 7,9 89,6 0 0 46 0,6 983,2
9 San Julian 10-05-2026 02:00 7,9 91,4 0 0 46 0,6 983,2
8 San Julian 10-05-2026 01:45 7,5 87 0 0 46 0,6 983,2
7 San Julian 10-05-2026 01:30 9,1 87,7 0 0 46 0,6 983,2
6 San Julian 10-05-2026 01:15 9,3 87,5 0 0 46 0,6 983,2
5 San Julian 10-05-2026 01:00 9,1 88,1 0 0 48 0,6 983,2
4 San Julian 10-05-2026 00:45 9,5 87,5 0 0 48 0,6 983,3
3 San Julian 10-05-2026 00:30 9,9 86,5 0 0 46 0,6 983,3
2 San Julian 10-05-2026 00:15 10,1 86,6 0 0 42 0,6 983,2
1 San Julian 10-05-2026 00:00 10,4 86,6 0 0 21 0,6 983,3